[[{"header":{"parameterUnit":"m.s-1","parameterCategory":1,"la1":30.2991,"la2":30.254,"lo1":-89.0895,"lo2":-89.0444,"dy":0.0017,"dx":0.0017,"nx":28,"ny":28,"refTime":"2025-05-19T09:00:00:Z","depth":0,"parameterNumber":2,"parameterNumberName":"U-component_of_WINDS"},"data":[0,0,0,0,0,0,0,0,0,0,0,0,0,0,0,0,0,0,0,0,0,0,0,0,0,0,0,0,0,0,0,0,0,0,0,0,0,0,0,0,0,0,0,0,0,0,0,0,0,0,0,0,0,0,0,0,0,0,-1.0192,-1.0192,0,-1.0215,-1.0215,-1.0215,-1.0204,-1.0204,-1.0203,-1.0202,-1.0227,-1.0228,-1.023,0,0,0,0,0,0,0,0,0,0,0,0,0,-1.0139,-1.014,-1.0192,-1.0192,-1.0192,-1.0215,-1.0215,-1.0216,-1.0204,-1.0204,-1.0203,-1.0202,-1.0227,-1.0228,-1.023,0,0,0,0,0,0,0,0,0,0,0,0,0,-1.0162,-1.0141,-1.0192,-1.0189,-1.0189,-1.0215,-1.0215,-1.0216,-1.0204,-1.0204,-1.0203,-1.0202,-1.0226,-1.0228,-1.023,-1.0259,0,0,-1.0235,-1.0236,0,0,0,0,0,0,0,0,-1.0161,-1.0164,-1.0189,-1.0189,-1.019,-1.0206,-1.0206,-1.023,-1.0205,-1.0199,-1.0202,-1.0201,-1.0221,-1.0223,-1.0229,-1.026,-1.0261,-1.0236,-1.0237,-1.0238,-1.0238,0,0,0,0,0,0,0,-1.016,-1.0163,-1.0201,-1.019,-1.019,-1.0188,-1.019,-1.021,-1.0215,-1.0199,-1.0198,-1.0201,-1.0221,-1.0228,-1.023,-1.0262,-1.0236,-1.0237,-1.0238,-1.0239,-1.032,-1.0321,0,0,0,0,0,0,-1.0158,-1.0162,-1.02,-1.0202,-1.0173,-1.019,-1.0192,-1.0201,-1.0214,-1.0215,-1.0202,-1.0201,-1.0225,-1.0228,-1.0231,-1.0267,-1.0237,-1.0239,-1.024,-1.0319,-1.032,-1.0321,0,0,0,0,0,0,-1.0157,-1.0161,-1.0199,-1.0182,-1.0186,-1.0191,-1.0202,-1.0202,-1.0209,-1.0216,-1.0217,-1.0208,-1.0224,-1.0228,-1.0253,-1.0268,-1.024,-1.0242,-1.0318,-1.0319,-1.0321,-1.0339,0,0,0,0,0,0,-1.0155,-1.0161,-1.0172,-1.0182,-1.0187,-1.022,-1.0203,-1.0204,-1.0212,-1.0211,-1.0223,-1.0224,-1.0224,-1.025,-1.0254,-1.027,-1.0243,-1.0316,-1.0318,-1.032,-1.0338,-1.0341,-1.0345,0,0,0,0,0,-1.0153,-1.0176,-1.0172,-1.0177,-1.0201,-1.0221,-1.0224,-1.0224,-1.0214,-1.0225,-1.023,-1.0223,-1.0265,-1.0253,-1.0257,-1.0274,-1.0315,-1.0318,-1.032,-1.0336,-1.0341,-1.0345,0,0,0,0,0,0,-1.0167,-1.0177,-1.0173,-1.0199,-1.0209,-1.0219,-1.0233,-1.0229,-1.0242,-1.024,-1.0239,-1.0242,-1.0268,-1.0273,-1.0259,-1.0304,-1.0289,-1.0292,-1.0299,-1.0304,-1.0308,-1.0306,-1.0245,0,0,0,0,0,-1.0173,-1.0188,-1.0196,-1.0219,-1.0224,-1.0228,-1.0237,-1.0236,-1.0246,-1.025,-1.0257,-1.0268,-1.0284,-1.0294,-1.0309,-1.0338,-1.0341,-1.0352,-1.0356,-1.0359,-1.0362,-1.0379,-1.0385,-1.0329,-1.0329,-1.0329,0,0,-1.0186,-1.0193,-1.0203,-1.0222,-1.0229,-1.0246,-1.0231,-1.0249,-1.0262,-1.0253,-1.0277,-1.0282,-1.0294,-1.0322,-1.0334,-1.0327,-1.0378,-1.0362,-1.0364,-1.0366,-1.0382,-1.0388,-1.0392,-1.0331,-1.0331,-1.033,0,0,-1.0217,-1.0224,-1.0244,-1.0252,-1.0264,-1.0267,-1.0272,-1.0282,-1.0285,-1.0309,-1.0304,-1.0319,-1.0346,-1.0355,-1.0363,-1.0401,-1.0396,-1.0405,-1.0425,-1.0442,-1.0446,-1.045,-1.0464,-1.0469,-1.0408,-1.0408,-1.0408,0,-1.0232,-1.0256,-1.0255,-1.0273,-1.0283,-1.0276,-1.0297,-1.0305,-1.0321,-1.0328,-1.032,-1.0355,-1.0362,-1.0393,-1.0402,-1.0408,-1.0415,-1.0404,-1.0445,-1.0449,-1.0453,-1.0467,-1.0472,-1.041,-1.041,-1.0409,-1.0409,0,-1.0273,-1.029,-1.0305,-1.0321,-1.0332,-1.0352,-1.0355,-1.0366,-1.0365,-1.0369,-1.0394,-1.0403,-1.042,-1.0427,-1.0426,-1.0458,-1.0453,-1.0445,-1.043,-1.046,-1.0472,-1.0477,-1.0411,-1.0411,-1.0411,-1.041,0,0,-1.0313,-1.033,-1.0335,-1.0343,-1.0356,-1.037,-1.039,-1.0407,-1.0417,-1.0429,-1.0447,-1.047,-1.0464,-1.0473,-1.0473,-1.0488,-1.0518,-1.0478,-1.0478,-1.0486,-1.0556,-1.0562,-1.0568,-1.0515,-1.0516,-1.0517,-1.0555,0,-1.0347,-1.0381,-1.0382,-1.0414,-1.0431,-1.0425,-1.0443,-1.0454,-1.0458,-1.0473,-1.0478,-1.0496,-1.0485,-1.0491,-1.0505,-1.0511,-1.0532,-1.0508,-1.0532,-1.0533,-1.053,-1.0574,-1.0581,-1.0616,-1.056,-1.0561,-1.0561,0,-1.039,-1.0404,-1.0437,-1.045,-1.0457,-1.0472,-1.0489,-1.0503,-1.0516,-1.0518,-1.053,-1.0527,-1.0549,-1.0534,-1.0564,-1.0548,-1.0558,-1.0563,-1.0564,-1.0566,-1.0549,-1.0579,-1.0628,-1.0633,-1.0569,-1.0568,-1.0568,0,-1.0417,-1.0444,-1.0468,-1.0475,-1.0489,-1.0501,-1.0508,-1.0519,-1.053,-1.0545,-1.0552,-1.0569,-1.0578,-1.0592,-1.0595,-1.0583,-1.0626,-1.061,-1.0629,-1.0629,-1.0638,-1.0638,-1.069,-1.0644,-1.0644,-1.0643,-1.0643,0,-1.0455,-1.0476,-1.0481,-1.0496,-1.052,-1.0521,-1.0545,-1.0551,-1.0561,-1.0578,-1.0574,-1.059,-1.0593,-1.061,-1.0612,-1.0638,-1.0642,-1.0645,-1.0646,-1.0646,-1.0646,-1.0653,-1.065,-1.0645,-1.0645,-1.0644,-1.0644,0,-1.0489,-1.0493,-1.0519,-1.0531,-1.0535,-1.0552,-1.0563,-1.0578,-1.0582,-1.0604,-1.0609,-1.0616,-1.0636,-1.064,-1.0663,-1.0665,-1.0696,-1.0693,-1.0691,-1.0692,-1.0711,-1.0709,-1.077,-1.0778,-1.0725,-1.0726,-1.0726,0,-1.0513,-1.053,-1.0544,-1.0554,-1.0562,-1.0579,-1.059,-1.0592,-1.0604,-1.062,-1.0633,-1.0653,-1.0668,-1.0701,-1.0708,-1.0727,-1.0725,-1.0745,-1.0728,-1.0728,-1.0727,-1.0726,-1.0728,-1.0749,-1.0749,-1.075,-1.075,0,-1.0556,-1.0557,-1.0573,-1.059,-1.0603,-1.0617,-1.0629,-1.0639,-1.0643,-1.0656,-1.0676,-1.0689,-1.0713,-1.0733,-1.0751,-1.0759,-1.0756,-1.0755,-1.0761,-1.0762,-1.076,-1.0762,-1.0701,-1.0754,-1.0754,-1.0753,-1.0753,-1.0753,-1.0587,-1.0601,-1.0614,-1.0632,-1.0642,-1.0654,-1.0669,-1.0676,-1.0692,-1.0712,-1.0712,-1.0735,-1.0749,-1.0773,-1.0782,-1.08,-1.0794,-1.0802,-1.0804,-1.0806,-1.0808,-1.0757,-1.0804,-1.0803,-1.0803,-1.0803,-1.0803,0,-1.063,-1.0638,-1.0654,-1.0673,-1.0687,-1.0683,-1.0697,-1.071,-1.0729,-1.0742,-1.0758,-1.0782,-1.0801,-1.0811,-1.083,-1.0843,-1.0842,-1.0848,-1.0848,-1.085,-1.0812,-1.0806,-1.0849,-1.0849,-1.0849,-1.0849,-1.0849,-1.0849,-1.0654,-1.0679,-1.0682,-1.0713,-1.0721,-1.0743,-1.0751,-1.0763,-1.0774,-1.08,-1.0817,-1.0823,-1.0835,-1.0855,-1.0873,-1.0876,-1.0884,-1.0891,-1.0892,-1.0857,-1.0852,-1.0848,-1.0842,-1.0892,-1.0892,-1.0929,-1.0929,-1.0929]},{"header":{"parameterUnit":"m.s-1","parameterCategory":1,"la1":30.2991,"la2":30.254,"lo1":-89.0895,"lo2":-89.0444,"dy":0.0017,"dx":0.0017,"nx":28,"ny":28,"refTime":"2025-05-19T09:00:00:Z","depth":0,"parameterNumber":3,"parameterNumberName":"V-component_of_WINDS"},"data":[0,0,0,0,0,0,0,0,0,0,0,0,0,0,0,0,0,0,0,0,0,0,0,0,0,0,0,0,0,0,0,0,0,0,0,0,0,0,0,0,0,0,0,0,0,0,0,0,0,0,0,0,0,0,0,0,0,0,5.9018,5.9018,0,5.9052,5.9053,5.9053,5.898,5.8978,5.8975,5.8973,5.9005,5.9008,5.9011,0,0,0,0,0,0,0,0,0,0,0,0,0,5.8885,5.8888,5.9018,5.9018,5.9019,5.9052,5.9053,5.9053,5.898,5.8978,5.8975,5.8972,5.9004,5.9007,5.9011,0,0,0,0,0,0,0,0,0,0,0,0,0,5.8934,5.8889,5.9018,5.8987,5.8984,5.9052,5.9053,5.9053,5.8981,5.8978,5.8974,5.8971,5.9003,5.9007,5.9012,5.911,0,0,5.9026,5.9027,0,0,0,0,0,0,0,0,5.8931,5.8939,5.8991,5.8989,5.8986,5.9008,5.9018,5.9072,5.8982,5.8982,5.8973,5.8969,5.9009,5.9012,5.9027,5.9112,5.9113,5.9026,5.9029,5.9031,5.9032,0,0,0,0,0,0,0,5.8928,5.8937,5.9031,5.8992,5.8989,5.897,5.8973,5.9028,5.9015,5.8982,5.8977,5.8982,5.9007,5.9022,5.9027,5.9114,5.9026,5.903,5.9033,5.9034,5.9281,5.9285,0,0,0,0,0,0,5.8929,5.8934,5.903,5.9032,5.895,5.8975,5.8978,5.9005,5.9014,5.9012,5.8985,5.8978,5.9016,5.9022,5.9028,5.9143,5.9031,5.9035,5.9037,5.9277,5.9282,5.9286,0,0,0,0,0,0,5.8926,5.8938,5.9029,5.8982,5.8992,5.8981,5.9011,5.9007,5.9023,5.9016,5.9013,5.9004,5.9014,5.9021,5.909,5.9144,5.9037,5.9041,5.9273,5.9279,5.9284,5.9376,0,0,0,0,0,0,5.8923,5.8938,5.8976,5.8984,5.8995,5.9093,5.9015,5.9011,5.9031,5.9023,5.9033,5.9031,5.9012,5.9084,5.9095,5.9148,5.9045,5.9268,5.9275,5.9282,5.9369,5.9385,5.9398,0,0,0,0,0,5.8918,5.9,5.8978,5.899,5.9043,5.9096,5.9102,5.9079,5.9036,5.9074,5.9069,5.9031,5.9136,5.9092,5.9103,5.9159,5.9264,5.9273,5.9282,5.9362,5.9381,5.9398,0,0,0,0,0,0,5.8998,5.9,5.8976,5.9063,5.908,5.9083,5.913,5.9101,5.9129,5.912,5.9089,5.9092,5.9167,5.9169,5.912,5.9254,5.9193,5.9204,5.925,5.9268,5.9283,5.928,5.9048,0,0,0,0,0,5.9026,5.907,5.9069,5.9145,5.9155,5.9142,5.9164,5.9145,5.916,5.9167,5.9167,5.9183,5.9219,5.9244,5.9277,5.9369,5.9369,5.9412,5.9427,5.9439,5.9449,5.9497,5.9516,5.9314,5.9314,5.9314,0,0,5.9083,5.909,5.9119,5.9162,5.9172,5.9217,5.9148,5.9199,5.9231,5.9174,5.924,5.9241,5.9256,5.9337,5.9372,5.9341,5.9505,5.945,5.946,5.9463,5.9508,5.9527,5.9544,5.932,5.9319,5.9318,0,0,5.921,5.9221,5.9285,5.9298,5.9315,5.9306,5.9322,5.933,5.9329,5.9395,5.9352,5.939,5.9454,5.9466,5.9481,5.9614,5.9579,5.9626,5.9703,5.975,5.9766,5.978,5.9827,5.9844,5.9636,5.9636,5.9636,0,5.9279,5.9347,5.9322,5.9376,5.9395,5.9347,5.9411,5.9424,5.9451,5.9465,5.9431,5.951,5.9516,5.9599,5.9632,5.9646,5.9662,5.9624,5.9766,5.978,5.9793,5.9837,5.9855,5.9642,5.9641,5.964,5.964,0,5.943,5.9477,5.9527,5.9556,5.9581,5.964,5.9623,5.9652,5.963,5.9624,5.9691,5.9698,5.9732,5.975,5.9729,5.983,5.981,5.9772,5.9709,5.9818,5.9859,5.9876,5.9649,5.9647,5.9646,5.9644,0,0,5.9608,5.9623,5.9642,5.9654,5.967,5.9706,5.9762,5.9796,5.9821,5.9841,5.9887,5.9942,5.9907,5.9923,5.9904,5.9945,6.0049,5.9901,5.9901,5.9928,6.016,6.0189,6.0209,6.0027,6.003,6.0032,6.0159,0,5.9734,5.9832,5.9812,5.9908,5.9951,5.9905,5.9954,5.9969,5.9965,5.9999,5.9994,6.0034,5.9984,5.9994,6.0033,6.0029,6.0095,6.0019,6.0068,6.007,6.0065,6.023,6.0261,6.038,6.0174,6.0177,6.0179,0,5.9894,5.9922,6.0023,6.0032,6.0049,6.0094,6.0123,6.0158,6.0173,6.0167,6.0186,6.0158,6.0213,6.0151,6.0225,6.0174,6.0192,6.0193,6.0197,6.02,6.0131,6.0237,6.0417,6.0435,6.0204,6.0202,6.02,0,6.0013,6.0076,6.0144,6.0156,6.0169,6.0201,6.0207,6.0219,6.0241,6.0266,6.028,6.0311,6.0328,6.0353,6.0334,6.029,6.0411,6.0347,6.0406,6.0407,6.0433,6.0432,6.0618,6.0447,6.0447,6.0446,6.0446,0,6.0156,6.0219,6.0198,6.024,6.0309,6.0284,6.0353,6.0354,6.0365,6.0405,6.0368,6.0406,6.0379,6.0415,6.04,6.0464,6.0472,6.0468,6.0463,6.0471,6.0471,6.0482,6.0473,6.0451,6.045,6.0449,6.0448,0,6.03,6.0289,6.036,6.0367,6.037,6.042,6.0425,6.0463,6.0457,6.0508,6.0519,6.0508,6.0548,6.0532,6.0574,6.0564,6.0646,6.063,6.0641,6.0637,6.0697,6.0692,6.0896,6.0922,6.0735,6.0737,6.0738,0,6.0392,6.044,6.0451,6.0477,6.0486,6.0527,6.0549,6.0526,6.0551,6.0572,6.0608,6.0645,6.0674,6.074,6.0735,6.0768,6.0752,6.0822,6.0757,6.0763,6.0753,6.075,6.0754,6.0835,6.0837,6.0838,6.084,0,6.0555,6.0547,6.0582,6.0615,6.0643,6.0667,6.0688,6.071,6.0688,6.0718,6.0759,6.0781,6.0825,6.0863,6.0891,6.0896,6.0865,6.0861,6.0876,6.0884,6.0888,6.0886,6.0676,6.0856,6.0854,6.0853,6.0852,6.0852,6.0676,6.0716,6.0731,6.077,6.0784,6.0804,6.0841,6.0839,6.0873,6.0908,6.0892,6.094,6.0954,6.0989,6.0999,6.1035,6.1008,6.103,6.1035,6.1041,6.1049,6.0883,6.104,6.104,6.1039,6.1039,6.1038,0,6.0837,6.0844,6.0881,6.0912,6.0943,6.0911,6.0933,6.096,6.1003,6.1019,6.1048,6.1096,6.1132,6.113,6.1163,6.1193,6.1179,6.1202,6.1199,6.1201,6.1072,6.1055,6.1212,6.1212,6.1212,6.1212,6.1212,6.1212,6.0924,6.0991,6.0984,6.1057,6.1063,6.1111,6.1126,6.1144,6.1156,6.1212,6.1242,6.1241,6.1249,6.1283,6.1314,6.1312,6.1326,6.1355,6.1348,6.1227,6.121,6.1193,6.1177,6.1358,6.1358,6.1473,6.1474,6.1475]}]]